Vertical_Velocity
0 -5 -2 0 2 2 2 0 -0 4 6 6 3 -14 -1 3 3 0 -0 3 2 2 9 5 6 7 3 0 2 0 1 -1 -1 -0 2 -1 -0 0 0 -1 1 1 -0
-0 1 -4 4 -1 -1 2 -0 -1 1 3 3 -4 16 -2 -3 1 2 3 4 1 -0 0 3 6 12 27 10 0 3 1 -1 -1 -2 2 0 0 -1 1 1 -0 1 1
-1 1 -3 -3 -3 1 1 2 2 2 2 4 2 -10 4 10 -13 -6 0 -3 2 1 0 -1 1 8 6 5 6 2 4 1 -2 -1 0 -0 1 -1 -0 1 1 -0 1
-0 -1 1 1 3 1 1 -4 1 1 1 -1 2 -1 -2 -6 3 -3 -4 -7 -3 3 4 0 1 0 2 -2 5 8 3 0 -0 -2 0 -0 -0 -1 -1 0 1 1 -1
-2 -4 -7 2 0 1 3 1 4 2 1 1 0 2 2 3 0 -2 6 6 4 3 1 1 -0 1 3 -1 -8 -2 2 1 1 -1 -1 1 0 -1 1 -1 -2 1 0
-0 4 6 -2 3 5 -2 -1 1 0 5 1 2 -0 1 1 1 4 -0 1 3 1 2 1 1 1 0 1 -1 -1 1 2 1 1 -2 1 -1 -0 10 2 0 -1 0
-2 -3 -4 3 -2 -5 -1 -1 0 -3 -0 0 -1 1 -4 1 1 -0 -3 0 3 0 1 2 -0 -0 0 1 -1 -1 -1 1 1 -1 0 1 -0 -2 7 5 -1 -2 -1
-1 0 -3 -2 -2 -7 -3 1 -1 -1 0 -2 -0 1 -1 1 -0 1 -1 -3 1 -0 -0 -0 1 2 3 -1 -1 -0 -0 -1 -0 -1 -1 1 0 -1 2 7 -2 -2 -2
0 0 -1 3 1 -7 -2 -5 -6 -4 -3 -3 -3 0 -2 -3 2 0 0 1 2 1 2 1 -0 2 2 1 2 0 -1 1 -1 -1 0 1 -1 -0 8 6 -0 -0 -3
0 1 -2 -4 -3 2 3 1 -1 -3 1 -3 -3 -1 -1 -3 -2 -1 -6 0 -1 -0 -1 2 1 -1 3 1 -3 2 -2 1 2 -1 -3 3 -2 -2 3 8 8 1 -1
-2 -2 -0 0 0 -1 -3 -4 -3 -3 -4 -3 0 -1 2 -1 -2 -2 -1 -2 -0 -1 -1 0 0 1 2 2 1 3 0 -0 -2 2 -1 -2 1 2 -6 3 8 1 0
-1 0 -2 -4 -2 -0 -1 -1 -2 -4 -4 -3 -1 -5 -1 -0 -2 -3 -3 -2 -2 -2 -0 -2 -3 -1 2 -2 2 1 -2 2 1 2 -1 -2 1 1 -1 -5 3 1 0
1 1 1 -0 -1 -2 -1 -0 -1 -0 -2 -5 -7 -6 -4 -4 -1 1 -1 -3 -2 -2 -3 -2 -2 0 -0 -0 0 2 -0 1 5 1 3 0 0 0 4 -4 -3 -1 -0
-1 -2 -2 -1 -1 -0 1 -0 -1 -1 0 -1 -2 -2 -4 -5 -0 -0 1 1 -2 -2 -1 -2 -2 -3 -3 1 -2 -1 2 1 1 2 2 3 1 0 2 1 -3 -0 -2
-1 -1 -2 -2 -1 -2 -3 -2 0 1 1 -0 -2 -2 -2 -2 -2 -3 -4 -2 1 1 -0 -2 -2 0 -4 -5 -2 -2 -2 -1 1 1 0 2 5 0 -0 3 1 1 6
1 -0 -1 -1 1 1 1 -1 -1 -1 0 -0 1 2 3 -1 -4 -2 -1 -3 -2 -1 -2 0 -1 -0 1 -4 -2 -3 -2 -0 0 -2 0 1 2 3 0 1 2 1 1
-0 1 2 2 1 -1 -3 -6 -7 -5 -5 -3 -2 -3 -3 -3 0 2 -2 -4 -3 -2 -1 -0 -4 -1 1 -4 1 -5 -4 -2 -4 4 -0 -2 2 3 1 0 2 4 2
-1 -1 -4 -5 -4 -4 -8 -10 -9 -12 -15 -14 -13 -9 -7 -6 -6 -2 -1 -1 -3 -1 -1 -2 -1 -1 -3 -2 1 1 -6 -3 -1 -2 1 -1 -0 0 2 -2 1 4 1
-1 -1 -1 -3 -5 -5 -3 -4 -5 -7 -4 -1 -7 -9 -8 -11 -8 -5 -1 -1 -2 -2 -2 -3 2 -1 0 -0 -6 -2 5 -2 -3 -5 -3 -3 3 -0 -0 2 -1 3 4
-3 -4 -3 -5 -6 -4 -5 -3 -1 -1 -1 -4 -2 1 -1 -4 -7 -6 -2 -2 -1 -0 -3 -3 -3 1 -0 -0 -5 1 -4 1 -0 -2 -2 -3 -0 4 3 -6 1 0 0
-3 -2 -3 -3 -6 -7 -6 -5 -1 -3 -6 -6 -6 -3 -1 -0 -0 -3 -5 -3 -3 -1 -1 -2 -5 -2 2 -3 1 -8 3 2 2 -2 1 -4 -3 7 2 -5 -1 -2 3
-3 -2 -1 -1 -4 -6 -11 -8 -8 -8 -2 -6 -4 -4 -4 -5 -2 -2 -4 -4 -2 -1 0 -1 -5 -4 -2 -0 -6 0 2 9 -2 -6 1 1 -2 58 -1 2 -0 -2 1
-2 -3 -2 -5 -6 -7 -7 -5 -5 -6 -5 -4 -1 -1 -2 -4 -3 -2 -0 -3 -3 -3 6 -0 -1 -5 -3 3 -1 -3 4 -15 5 1 10 4 8 -12 6 6 3 11 -5
-3 -2 -5 -4 -6 -6 -5 -4 -5 -4 -5 -4 -5 -2 -1 -2 -3 -3 -4 -4 -2 -4 -3 -0 -3 -3 -3 1 -1 -1 -3 -0 -5 9 -0 7 3 0 -2 3 -12 2 -2
-3 -3 -4 -5 -5 -3 -3 -5 -4 -4 -6 -4 -2 -4 -2 -2 -2 -1 -3 -2 -2 -3 -1 0 1 -3 -2 -3 -5 0 -2 -1 2 3 0 1 -1 7 2 -1 3 7 1
-3 -3 -4 -4 -2 -2 -3 -2 -3 -5 -3 -3 -2 -5 -4 -2 -2 -1 -2 -2 -3 -3 -4 -4 0 0 -2 -3 -3 -2 0 -0 4 -5 -3 5 -6 9 -17 -15 -2 -1 -0
Height
3162 3164 3165 3166 3165 3165 3166 3167 3167 3168 3168 3168 3168 3168 3168 3168 3169 3169 3170 3170 3171 3171 3172 3173 3173 3172 3173 3174 3174 3174 3173 3174 3172 3172 3172 3173 3173 3172 3173 3174 3176 3178 3178
3160 3161 3163 3163 3163 3164 3164 3164 3165 3165 3165 3167 3169 3168 3167 3167 3168 3168 3169 3169 3169 3170 3170 3171 3170 3170 3163 3172 3172 3173 3172 3172 3171 3170 3171 3171 3172 3171 3172 3174 3176 3177 3179
3157 3159 3160 3161 3161 3162 3162 3163 3162 3162 3163 3164 3164 3166 3167 3166 3165 3166 3167 3168 3168 3169 3169 3169 3169 3169 3168 3168 3170 3171 3170 3170 3170 3169 3170 3170 3170 3170 3171 3173 3174 3176 3177
3156 3157 3158 3158 3158 3159 3159 3160 3160 3159 3160 3161 3161 3163 3164 3165 3165 3165 3166 3166 3166 3166 3167 3167 3167 3168 3167 3165 3168 3168 3168 3168 3168 3168 3168 3169 3169 3169 3170 3171 3173 3174 3176
3155 3156 3157 3156 3157 3157 3157 3157 3158 3158 3157 3158 3159 3160 3160 3161 3162 3163 3163 3164 3164 3164 3163 3164 3165 3165 3165 3166 3166 3165 3166 3166 3165 3167 3166 3167 3169 3169 3170 3171 3172 3173 3174
3150 3151 3153 3153 3153 3152 3152 3153 3154 3154 3156 3155 3155 3156 3156 3157 3157 3158 3159 3160 3160 3160 3159 3160 3161 3162 3162 3163 3163 3163 3163 3163 3163 3165 3165 3166 3167 3168 3169 3168 3171 3172 3173
3148 3149 3149 3149 3150 3150 3149 3149 3149 3149 3150 3151 3152 3152 3152 3152 3152 3153 3154 3155 3156 3156 3156 3157 3156 3158 3159 3160 3160 3160 3160 3160 3161 3162 3163 3164 3165 3166 3167 3167 3168 3170 3171
3144 3144 3144 3145 3145 3145 3145 3145 3145 3145 3145 3145 3147 3147 3147 3147 3148 3148 3149 3150 3150 3150 3151 3151 3152 3152 3153 3155 3156 3157 3156 3156 3158 3159 3160 3161 3161 3163 3164 3165 3166 3168 3169
3141 3141 3141 3140 3139 3139 3140 3140 3140 3140 3140 3141 3141 3142 3142 3142 3142 3142 3143 3145 3145 3145 3145 3145 3147 3148 3149 3150 3151 3152 3152 3152 3153 3155 3156 3157 3158 3160 3162 3163 3162 3165 3167
3137 3135 3134 3134 3134 3134 3133 3133 3133 3133 3133 3133 3134 3134 3135 3136 3136 3136 3137 3138 3139 3139 3140 3140 3141 3142 3144 3145 3145 3146 3147 3148 3149 3151 3152 3154 3155 3156 3159 3160 3160 3161 3163
3131 3130 3129 3128 3127 3126 3125 3125 3125 3124 3124 3125 3125 3125 3126 3126 3127 3128 3129 3130 3131 3131 3132 3133 3134 3135 3136 3137 3139 3140 3141 3142 3143 3146 3148 3150 3151 3154 3155 3156 3157 3157 3160
3123 3122 3122 3121 3120 3119 3118 3118 3117 3117 3116 3116 3116 3116 3116 3116 3117 3119 3119 3120 3121 3123 3123 3124 3126 3127 3129 3130 3132 3134 3135 3136 3137 3140 3143 3144 3146 3148 3151 3152 3153 3154 3157
3116 3115 3114 3114 3113 3112 3111 3109 3108 3108 3107 3107 3107 3107 3107 3107 3106 3106 3108 3109 3111 3112 3114 3114 3116 3118 3120 3122 3124 3126 3128 3130 3130 3132 3136 3139 3140 3143 3145 3147 3148 3150 3153
3111 3109 3107 3105 3103 3102 3101 3100 3100 3099 3098 3096 3096 3095 3096 3097 3096 3095 3094 3096 3097 3100 3101 3103 3105 3107 3109 3112 3114 3118 3119 3122 3123 3124 3128 3132 3133 3136 3139 3141 3142 3144 3148
3104 3102 3101 3099 3096 3094 3092 3090 3089 3087 3086 3085 3085 3084 3084 3083 3083 3083 3083 3083 3083 3084 3086 3089 3091 3094 3097 3100 3104 3106 3110 3113 3115 3117 3120 3124 3128 3130 3132 3135 3136 3139 3142
3095 3093 3091 3089 3087 3085 3082 3079 3077 3075 3073 3071 3069 3067 3067 3069 3071 3071 3070 3069 3069 3069 3070 3073 3076 3080 3083 3086 3091 3095 3098 3102 3105 3108 3111 3115 3119 3123 3125 3128 3130 3132 3135
3086 3084 3082 3081 3079 3077 3075 3073 3070 3066 3063 3061 3058 3055 3052 3050 3048 3051 3054 3055 3055 3056 3056 3056 3059 3063 3067 3071 3076 3081 3086 3090 3093 3097 3101 3105 3109 3113 3118 3121 3124 3125 3127
3078 3076 3074 3072 3071 3069 3067 3064 3062 3059 3057 3053 3050 3047 3044 3041 3038 3035 3033 3035 3038 3039 3040 3041 3042 3046 3050 3055 3059 3065 3071 3077 3081 3086 3090 3094 3099 3103 3108 3112 3116 3119 3121
3072 3070 3068 3066 3064 3061 3058 3054 3050 3045 3041 3037 3034 3031 3030 3028 3026 3024 3021 3019 3017 3020 3023 3024 3026 3027 3032 3037 3041 3047 3054 3062 3068 3073 3077 3082 3088 3093 3098 3103 3107 3110 3114
3063 3061 3059 3057 3054 3049 3044 3040 3037 3034 3031 3027 3024 3019 3016 3014 3012 3010 3008 3005 3003 3003 3005 3007 3008 3011 3013 3018 3024 3030 3036 3043 3052 3059 3064 3070 3075 3081 3087 3092 3098 3100 3104
3056 3054 3051 3048 3044 3038 3032 3027 3024 3022 3021 3018 3015 3012 3008 3003 2999 2996 2995 2993 2991 2990 2991 2991 2992 2994 2997 2999 3005 3010 3019 3026 3035 3044 3051 3057 3063 3068 3074 3079 3086 3090 3094
3051 3048 3044 3039 3034 3030 3024 3020 3016 3011 3009 3007 3005 3002 2998 2994 2991 2987 2984 2982 2979 2976 2977 2977 2978 2980 2982 2986 2988 2993 3000 3012 3018 3026 3035 3042 3050 3050 3061 3066 3072 3079 3083
3044 3041 3037 3032 3027 3021 3015 3010 3006 3002 2997 2992 2991 2988 2985 2982 2979 2976 2974 2971 2969 2966 2963 2964 2966 2967 2970 2974 2976 2978 2983 2989 3000 3009 3019 3028 3034 3042 3048 3053 3059 3065 3071
3037 3033 3029 3024 3019 3012 3006 3000 2995 2991 2987 2984 2980 2977 2974 2971 2969 2966 2963 2961 2959 2956 2954 2953 2954 2956 2956 2962 2965 2966 2968 2973 2983 2992 3002 3011 3019 3027 3034 3038 3045 3052 3057
3029 3025 3020 3015 3010 3003 2997 2992 2987 2983 2978 2973 2969 2966 2964 2962 2959 2956 2953 2951 2949 2947 2945 2943 2943 2944 2945 2949 2953 2956 2957 2962 2969 2973 2983 2995 3002 3010 3017 3023 3032 3038 3043
3022 3016 3010 3004 3001 2993 2988 2984 2978 2973 2968 2963 2960 2956 2954 2952 2950 2947 2944 2941 2939 2937 2936 2934 2933 2933 2935 2937 2942 2944 2948 2951 2956 2957 2964 2977 2985 2995 3000 3006 3016 3022 3030